Vertical_Velocity
1 3 -4 -3 2 -0 7 15 2 0 3 -0 4 3 -2 -1 3 4 -1 5 2 2 3 2 2 2 -3 0 -1 3 -4 1 1 1 -0 -0 -1 1 2 0 1 0 0 -0 0 -1 -2
-1 -2 1 2 -2 0 -2 -10 12 6 3 1 1 8 1 1 8 5 1 -5 7 2 1 2 2 1 1 -1 2 1 3 -0 -2 3 0 0 -2 -1 -1 2 -0 0 0 -0 -1 -0 -1
1 1 3 2 2 0 -2 -4 -9 -2 4 1 -3 6 3 0 1 10 7 4 -5 6 2 1 2 -1 1 5 0 2 2 2 2 -1 3 1 -1 0 -0 0 2 0 0 1 0 -0 -2
3 -3 -3 0 -2 -0 -6 5 -16 -20 8 12 1 -14 0 5 4 1 4 7 4 2 3 3 2 2 -4 -1 2 1 -0 6 -2 1 -0 1 1 -1 0 -1 -1 1 0 1 -0 -0 -1
-0 7 -1 -5 1 1 -2 2 -5 -6 -10 -2 8 -6 6 1 2 1 7 9 0 6 5 3 1 3 4 -2 -2 2 3 -0 5 3 2 1 1 -0 1 -0 0 -1 -0 1 2 1 1
1 -3 6 1 1 -2 -0 1 8 -7 10 -7 -7 5 -4 1 8 5 4 7 1 8 7 3 3 8 -4 -0 4 -1 2 2 4 2 5 -1 1 -3 -0 -6 -8 -4 -2 -1 0 -1 0
3 -1 3 1 -0 -1 -2 -1 -9 -7 1 2 -7 20 -1 -6 5 6 7 -5 8 -3 2 4 -2 1 3 1 5 0 3 4 0 5 -2 1 -6 -19 -3 9 -3 -2 -2 0 1 0 -0
4 -2 2 3 2 1 -1 -2 -9 -1 6 5 3 -7 23 -3 -1 5 3 -7 6 5 -1 4 7 -5 8 5 6 1 0 -1 -2 0 3 1 -15 7 4 -2 2 1 -2 -2 1 -0 1
8 -5 0 4 2 0 2 0 -1 -5 -11 -3 1 9 17 34 3 -6 4 7 8 5 6 3 -2 1 5 6 4 4 5 1 0 1 -0 2 2 2 1 0 -2 -1 -2 -2 -1 -1 0
-1 -2 1 4 8 6 2 1 -2 -0 -3 12 -0 -5 -1 40 11 -11 -17 17 8 11 4 -7 -7 -19 -6 6 4 1 3 10 -2 -1 4 6 2 3 7 1 1 1 2 1 1 1 -2
1 -0 3 0 6 10 -1 -0 1 -4 -1 7 -7 5 -5 30 3 -10 7 6 16 13 2 3 -5 1 -4 2 2 -4 3 6 -1 0 -5 -4 1 -8 -3 4 4 -2 2 2 1 2 2
1 -1 2 -1 -1 2 2 -3 -1 4 -0 3 -2 -2 10 19 4 -2 28 13 17 17 -18 4 3 -9 -2 -0 1 7 -3 6 9 3 2 3 0 2 1 0 4 5 3 4 4 3 -1
-2 1 1 1 2 3 3 -1 -2 -3 -5 3 -3 2 -4 -11 25 10 45 23 11 3 5 -1 -9 -4 15 -6 0 7 -7 -12 -11 -5 -0 1 5 2 1 5 3 -1 6 -2 -4 -1 -8
-0 -1 1 1 1 -2 -0 2 6 1 -0 -3 3 3 -0 -6 21 28 20 37 11 -22 5 -2 -3 15 1 2 7 -0 3 -2 7 2 -0 -8 2 -7 -1 -2 -12 1 1 -8 -7 -3 -3
-1 2 4 1 5 4 -0 3 1 -7 1 -3 2 -3 -11 -6 8 36 66 30 -45 -4 4 1 3 22 5 8 6 4 4 -2 4 -9 -8 -6 1 1 4 3 7 -1 -2 4 0 0 -1
0 0 0 4 0 -2 -2 -2 4 3 -11 -3 -4 3 -15 6 -4 34 54 -13 -5 9 2 -1 -5 -7 -7 -6 -3 5 -1 -2 -4 -4 0 0 1 1 5 5 10 -2 3 -1 2 -4 -1
2 -1 3 0 1 4 1 -2 1 1 9 -4 -20 -21 -3 -7 16 34 10 -52 8 5 6 -3 -7 -0 -2 -16 6 -10 1 1 7 4 7 4 5 1 6 -5 -8 -2 -4 -0 3 1 -7
0 2 0 0 -1 -2 -2 -2 -0 -2 -2 7 5 -12 -7 11 6 1 19 -74 13 6 7 -1 5 5 -1 -3 -7 3 -5 9 -1 8 -20 7 5 5 -5 -2 4 7 -0 -2 -3 -2 4
2 -1 2 -0 -1 -0 -0 -1 1 -1 2 -9 -3 -14 16 15 26 6 11 3 -6 4 6 -0 2 9 -1 -11 -1 4 1 -0 -0 0 -14 -8 -3 -0 4 6 1 -10 -2 10 1 1 -3
3 1 2 -1 -0 1 2 0 1 -1 4 1 -3 -10 -6 2 5 10 14 6 3 2 10 4 -1 4 5 6 5 -4 0 -2 0 2 1 8 6 -6 -20 -11 -3 -12 -4 2 5 6 -3
-1 -1 2 2 -1 -0 2 1 3 8 3 -1 1 5 11 -1 3 -4 9 20 4 -8 -0 10 5 1 -12 -0 -1 -1 1 1 2 0 10 3 -0 3 1 -2 -1 0 4 3 -8 2 -2
0 1 -2 -0 -0 -1 -2 2 2 1 5 7 8 15 3 3 12 26 11 -2 -21 1 -7 -10 -1 7 8 9 0 -17 -5 -1 -8 -2 4 -1 6 7 3 1 -1 -3 -2 2 13 3 8
-1 1 -1 -1 1 -2 -0 -2 -2 2 4 -2 2 -0 5 -1 -5 14 -10 -14 -22 22 -6 1 4 1 -1 2 6 10 10 21 -3 -2 1 4 -6 0 -1 1 4 3 -4 -1 2 5 5
-3 -2 2 -1 -2 -0 -1 2 2 -2 1 -0 3 2 10 0 1 14 13 -1 -7 -22 12 0 5 1 -1 3 4 5 -3 9 13 4 -7 -4 3 8 3 3 -1 4 -2 1 -1 2 1
2 -1 -2 -2 1 -1 -0 -0 1 1 -2 -0 5 6 3 -3 2 9 20 10 -0 9 6 -2 -6 -4 -5 -8 9 -2 -8 -4 -8 -5 -6 5 0 2 5 -3 -5 -0 -5 -5 -4 -4 -2
1 -1 3 0 0 -0 -3 0 -0 -2 -0 4 2 1 3 8 10 -2 3 14 12 5 9 1 7 -6 -4 12 14 1 -3 -5 1 16 10 11 0 7 -1 -1 -5 1 -2 -3 2 -17 -1
-1 -1 -4 2 -1 -1 -3 -2 0 -1 -0 1 -5 -2 1 3 5 8 5 12 2 5 7 -1 -5 6 13 8 6 -2 -3 -3 -2 -1 -8 1 6 -4 2 -0 2 3 -1 5 4 -23 -4
-1 -3 -1 -2 2 -1 -1 -1 -4 0 -0 0 -3 1 1 4 4 -0 2 5 7 6 -3 -3 15 14 2 10 9 -5 0 -1 0 -2 -1 -3 -3 -2 6 1 -9 -2 -1 3 1 -0 -3
-1 0 -1 1 3 2 -0 -1 -1 -4 -8 -1 -1 0 2 7 3 2 3 2 1 4 13 6 -3 5 4 7 -2 0 -9 5 2 -4 -1 1 -5 -6 -3 3 2 1 1 1 -5 -4 -5
Height
3041 3037 3036 3035 3033 3033 3032 3033 3038 3042 3047 3049 3055 3063 3067 3069 3072 3079 3083 3089 3095 3097 3100 3101 3104 3107 3110 3112 3115 3116 3120 3121 3123 3125 3127 3130 3132 3134 3135 3137 3138 3140 3141 3143 3144 3145 3146
3033 3031 3029 3028 3026 3024 3024 3023 3022 3029 3034 3039 3044 3051 3058 3062 3066 3071 3077 3080 3086 3092 3094 3097 3099 3101 3105 3109 3111 3113 3116 3118 3120 3122 3125 3127 3129 3132 3133 3135 3137 3138 3139 3141 3142 3143 3144
3023 3024 3022 3021 3019 3020 3017 3015 3015 3018 3021 3027 3035 3042 3047 3055 3060 3063 3070 3075 3078 3084 3088 3091 3094 3097 3100 3105 3106 3109 3112 3116 3118 3120 3123 3125 3127 3130 3131 3133 3135 3136 3138 3138 3139 3140 3141
3015 3015 3015 3014 3013 3013 3012 3011 3011 3011 3011 3016 3022 3032 3038 3045 3052 3057 3062 3067 3073 3077 3082 3085 3088 3092 3095 3098 3100 3104 3108 3111 3115 3117 3120 3122 3125 3127 3129 3131 3132 3134 3135 3136 3136 3138 3139
3007 3007 3007 3008 3008 3007 3008 3006 3004 3002 3004 3007 3007 3017 3030 3036 3043 3049 3053 3060 3064 3069 3074 3079 3081 3084 3089 3092 3096 3099 3102 3106 3110 3113 3116 3118 3121 3123 3126 3128 3130 3131 3132 3133 3134 3134 3136
2998 2999 3000 3000 3002 3002 3001 3002 3001 3000 2998 2999 3001 3006 3019 3025 3033 3040 3047 3052 3056 3060 3066 3070 3073 3080 3078 3085 3090 3095 3098 3101 3104 3108 3111 3113 3116 3118 3121 3123 3124 3127 3129 3131 3132 3134 3134
2990 2991 2993 2993 2995 2996 2996 2996 2998 2995 2993 2995 2997 2996 3003 3017 3025 3031 3039 3045 3051 3053 3052 3058 3065 3070 3074 3080 3083 3087 3092 3096 3100 3102 3105 3107 3110 3109 3116 3120 3122 3124 3126 3128 3129 3131 3131
2984 2985 2987 2988 2990 2990 2990 2990 2991 2991 2991 2987 2991 2992 2992 3002 3016 3022 3029 3033 3043 3048 3051 3054 3058 3063 3069 3073 3077 3080 3086 3091 3093 3097 3099 3104 3100 3111 3113 3116 3119 3120 3122 3124 3127 3128 3129
2979 2981 2982 2983 2984 2985 2985 2985 2986 2986 2986 2984 2987 2985 2985 2994 3005 3012 3019 3030 3039 3042 3046 3047 3050 3056 3064 3068 3072 3075 3080 3083 3088 3092 3096 3098 3100 3106 3107 3110 3113 3115 3117 3120 3123 3124 3124
2977 2977 2977 2979 2980 2980 2980 2980 2980 2980 2980 2979 2980 2981 2980 2985 2995 3000 3011 3028 3033 3039 3042 3038 3040 3045 3053 3060 3063 3069 3074 3081 3082 3087 3092 3095 3097 3100 3101 3104 3108 3111 3114 3116 3118 3120 3121
2975 2974 2974 2975 2975 2976 2976 2976 2975 2974 2974 2974 2975 2975 2976 2974 2972 2989 3012 3022 3029 3035 3037 3031 3031 3035 3044 3052 3055 3061 3068 3072 3076 3080 3085 3088 3090 3094 3098 3100 3104 3107 3110 3113 3114 3115 3116
2976 2973 2972 2972 2972 2972 2971 2971 2970 2969 2969 2969 2969 2971 2967 2965 2969 2985 3004 3013 3020 3030 3018 3015 3015 3022 3034 3039 3047 3055 3061 3067 3073 3075 3080 3083 3087 3090 3095 3098 3102 3104 3107 3109 3111 3112 3113
2975 2972 2970 2969 2968 2968 2968 2966 2965 2964 2964 2963 2963 2962 2963 2962 2970 2980 2987 2997 3010 3006 3006 3006 3007 3013 3024 3029 3040 3046 3050 3056 3061 3068 3071 3077 3081 3084 3088 3093 3098 3100 3103 3108 3114 3114 3107
2973 2970 2968 2966 2966 2965 2964 2963 2962 2960 2959 2956 2957 2955 2955 2954 2959 2969 2973 2983 2987 2989 2997 2997 3002 3011 3015 3024 3033 3037 3043 3047 3051 3057 3063 3068 3076 3078 3080 3084 3086 3091 3097 3098 3108 3107 3099
2973 2969 2966 2965 2963 2961 2960 2959 2958 2955 2953 2951 2949 2947 2947 2950 2951 2956 2961 2961 2965 2974 2987 2991 2998 3008 3011 3016 3022 3028 3033 3036 3043 3048 3059 3062 3067 3070 3074 3078 3086 3086 3089 3094 3094 3097 3097
2972 2968 2965 2962 2960 2959 2957 2956 2953 2951 2949 2946 2940 2937 2938 2940 2942 2945 2948 2948 2958 2972 2979 2988 2992 3001 3003 3006 3015 3021 3025 3027 3033 3041 3050 3055 3061 3063 3067 3072 3076 3080 3085 3088 3089 3098 3098
2972 2968 2964 2961 2959 2957 2955 2952 2949 2946 2945 2941 2934 2925 2928 2927 2931 2932 2930 2944 2953 2965 2971 2978 2987 2993 3000 3000 3008 3012 3017 3021 3028 3035 3043 3048 3053 3058 3060 3061 3064 3070 3073 3078 3081 3082 3084
2971 2967 2963 2960 2957 2954 2952 2949 2945 2942 2938 2933 2926 2921 2925 2924 2926 2924 2926 2937 2947 2959 2966 2972 2980 2990 2996 2999 3002 3007 3009 3015 3021 3025 3030 3040 3047 3050 3052 3055 3059 3062 3064 3069 3070 3073 3073
2971 2966 2962 2958 2955 2952 2950 2947 2943 2940 2934 2928 2922 2917 2918 2914 2912 2915 2927 2936 2945 2957 2961 2966 2976 2983 2988 2993 2999 3001 3006 3012 3017 3019 3023 3030 3038 3044 3050 3054 3051 3054 3058 3061 3064 3065 3064
2971 2966 2961 2957 2954 2951 2948 2945 2941 2938 2933 2928 2922 2917 2912 2910 2910 2915 2921 2930 2939 2949 2958 2963 2970 2976 2982 2987 2991 2993 3002 3007 3012 3016 3020 3024 3028 3029 3030 3035 3040 3044 3047 3052 3058 3059 3059
2970 2966 2961 2957 2953 2949 2946 2942 2939 2935 2931 2925 2916 2910 2906 2903 2907 2912 2919 2924 2931 2943 2952 2958 2966 2972 2977 2982 2985 2989 2995 3001 3006 3011 3015 3019 3022 3027 3029 3033 3036 3038 3041 3044 3046 3050 3054
2968 2964 2960 2956 2952 2948 2944 2940 2936 2932 2928 2923 2918 2911 2904 2898 2898 2904 2910 2916 2925 2939 2946 2953 2960 2964 2971 2976 2977 2981 2988 2995 2999 3007 3012 3014 3019 3022 3024 3028 3031 3035 3037 3038 3042 3045 3049
2967 2962 2958 2954 2950 2946 2942 2939 2935 2931 2926 2921 2916 2912 2907 2901 2899 2902 2904 2914 2922 2936 2942 2951 2958 2963 2968 2974 2979 2982 2988 2989 2997 3004 3006 3012 3018 3021 3023 3027 3029 3030 3029 3033 3036 3039 3043
2965 2960 2956 2951 2947 2944 2940 2937 2933 2930 2926 2922 2918 2915 2911 2907 2903 2903 2906 2912 2921 2927 2937 2944 2952 2957 2964 2970 2976 2976 2983 2989 2993 2997 3005 3010 3016 3017 3021 3025 3027 3018 3024 3029 3031 3034 3037
2965 2959 2954 2950 2945 2942 2938 2935 2932 2929 2925 2921 2916 2912 2909 2907 2905 2903 2905 2909 2917 2926 2931 2939 2946 2953 2960 2967 2973 2975 2981 2986 2988 2992 2997 3002 3007 3012 3016 3018 3019 3015 3018 3023 3025 3029 3031
2964 2958 2953 2949 2945 2941 2936 2933 2930 2927 2924 2920 2916 2913 2911 2909 2907 2906 2905 2909 2914 2920 2928 2933 2942 2945 2954 2957 2962 2966 2973 2978 2982 2983 2988 2992 2998 3007 3008 3012 3013 3006 3012 3018 3021 3022 3025
2964 2957 2952 2947 2944 2940 2936 2932 2928 2926 2923 2919 2916 2913 2912 2910 2907 2906 2906 2907 2910 2916 2923 2928 2934 2942 2946 2948 2953 2958 2963 2968 2971 2975 2982 2987 2992 2996 3001 3004 3003 3001 3006 3010 3017 3016 3017
2964 2957 2953 2947 2943 2939 2934 2931 2927 2924 2921 2918 2916 2913 2911 2909 2907 2906 2906 2906 2908 2912 2917 2922 2931 2934 2939 2944 2947 2950 2955 2962 2967 2970 2975 2980 2988 2992 2996 2997 2998 2997 3001 3008 3008 3007 3012
2964 2957 2952 2947 2942 2938 2934 2930 2927 2924 2921 2919 2916 2913 2911 2910 2909 2908 2907 2907 2907 2910 2914 2916 2922 2926 2929 2935 2939 2944 2950 2954 2958 2964 2968 2975 2978 2984 2990 2989 2990 2992 2997 3000 3003 3008 3012